Weather History for KSME - February, 2014

Change the Weather History Date:

Wednesday, February 26, 2014

  Actual Average Record
Temperature  
Mean Temperature 26 °F -  
Max Temperature 32 °F 52 °F 75 °F (1998)
Min Temperature 21 °F 32 °F 21 °F (2002)
Degree Days  
Heating Degree Days 38    
Moisture  
Dew Point 11 °F    
Average Humidity 54    
Maximum Humidity 80    
Minimum Humidity 27    
Precipitation  
Precipitation 0.00 in - - ()
Sea Level Pressure  
Sea Level Pressure 30.06 in    
Wind  
Wind Speed 7 mph (NNW)    
Max Wind Speed 12 mph    
Max Gust Speed 21 mph    
Visibility 9 miles    
Events Snow    
Averages and records for this station are not official NWS values.
T = Trace of Precipitation, MM = Missing Value Source: NWS Daily Summary

Daily Weather History Graph

Daily Weather History Graph

Search for Another Location

Airport or City:

Trip Planner

Search our weather history database for the weather conditions in past years. The results will help you decide how hot, cold, wet, or windy it might be!

Date:

Astronomy

Feb. 26, 2014 Rise Set
Actual Time 7:13 AM EST 6:29 PM EST
Civil Twilight 6:47 AM EST 6:55 PM EST
Nautical Twilight 6:17 AM EST 7:26 PM EST
Astronomical Twilight 5:47 AM EST 7:56 PM EST
Moon 4:55 AM EST (2/26) 3:46 PM EST (2/26)
Length of Visible Light 12h 08m
Length of Day
11h 16m
Waning Crescent, 10% of the Moon is Illuminated
Feb 26
Waning Crescent
Mar 1
New
Mar 8
First Quarter
Mar 16
Full
Mar 23
Last Quarter

Hourly Weather History & Observations

Time (EST) Temp. Windchill Dew Point Humidity Pressure Visibility Wind Dir Wind Speed Gust Speed Precip Events Conditions
12:15 AM 32.0 °F 26.4 °F 19.4 °F 60% 30.07 in 10.0 mi North 5.8 mph - N/A   Mostly Cloudy
12:35 AM 32.0 °F 24.8 °F 19.4 °F 60% 30.07 in 10.0 mi North 8.1 mph - N/A   Scattered Clouds
12:55 AM 32.0 °F 25.6 °F 19.4 °F 60% 30.06 in 10.0 mi North 6.9 mph - N/A   Scattered Clouds
1:15 AM 32.0 °F 25.6 °F 19.4 °F 60% 30.07 in 10.0 mi North 6.9 mph - N/A   Mostly Cloudy
1:35 AM 30.2 °F 24.3 °F 17.6 °F 60% 30.07 in 10.0 mi NNW 5.8 mph - N/A   Overcast
1:55 AM 30.2 °F 22.6 °F 19.4 °F 64% 30.07 in 10.0 mi North 8.1 mph - N/A   Overcast
2:15 AM 30.2 °F 24.3 °F 19.4 °F 64% 30.07 in 10.0 mi NNW 5.8 mph - N/A   Overcast
2:35 AM 30.2 °F 23.4 °F 19.4 °F 64% 30.08 in 10.0 mi NW 6.9 mph - N/A   Overcast
2:55 AM 28.4 °F 19.7 °F 19.4 °F 69% 30.08 in 10.0 mi NNW 9.2 mph - N/A   Overcast
3:15 AM 28.4 °F 20.4 °F 19.4 °F 69% 30.08 in 10.0 mi NNW 8.1 mph - N/A   Overcast
3:35 AM 28.4 °F 20.4 °F 19.4 °F 69% 30.09 in 10.0 mi NNW 8.1 mph - N/A   Overcast
4:00 AM 28.4 °F 19.7 °F 19.4 °F 69% 30.09 in 10.0 mi NNW 9.2 mph - N/A   Overcast
4:15 AM 28.4 °F 20.4 °F 19.4 °F 69% 30.08 in 10.0 mi North 8.1 mph 16.1 mph N/A   Overcast
4:35 AM 28.4 °F 19.1 °F 19.4 °F 69% 30.09 in 10.0 mi North 10.4 mph - N/A   Overcast
4:55 AM 28.4 °F 18.5 °F 17.6 °F 64% 30.10 in 10.0 mi NNW 11.5 mph - N/A   Overcast
5:15 AM 26.6 °F 16.2 °F 17.6 °F 69% 30.12 in 10.0 mi North 11.5 mph 20.7 mph N/A   Overcast
5:35 AM 26.6 °F 17.5 °F 17.6 °F 69% 30.13 in 10.0 mi North 9.2 mph 18.4 mph N/A   Overcast
5:55 AM 24.8 °F 15.3 °F 15.8 °F 69% 30.14 in 10.0 mi North 9.2 mph - N/A   Overcast
6:15 AM 24.8 °F 19.1 °F 15.8 °F 69% 30.15 in 10.0 mi NNW 4.6 mph - N/A   Overcast
6:35 AM 24.8 °F 17.9 °F 15.8 °F 69% 30.15 in 10.0 mi North 5.8 mph - N/A   Overcast
6:55 AM 24.8 °F 16.9 °F 17.6 °F 74% 30.13 in 5.0 mi North 6.9 mph - N/A Snow Light Snow
7:15 AM 23.0 °F 15.8 °F 17.6 °F 80% 30.13 in 10.0 mi North 5.8 mph - N/A Snow Light Snow
7:35 AM 23.0 °F 15.8 °F 17.6 °F 80% 30.13 in 10.0 mi North 5.8 mph - N/A   Scattered Clouds
7:55 AM 24.8 °F 19.1 °F 17.6 °F 74% 30.14 in 10.0 mi NNW 4.6 mph - N/A   Mostly Cloudy
8:15 AM 24.8 °F 17.9 °F 17.6 °F 74% 30.14 in 5.0 mi NNW 5.8 mph - N/A Snow Light Snow
8:40 AM 23.0 °F 13.1 °F 17.6 °F 80% 30.14 in 3.0 mi NE 9.2 mph - N/A Snow Light Snow
8:55 AM 23.0 °F 14.7 °F 17.6 °F 80% 30.14 in 1.2 mi NNE 6.9 mph - N/A Snow Light Snow
9:15 AM 24.8 °F 16.1 °F 19.4 °F 80% 30.15 in 1.8 mi North 8.1 mph - N/A Snow Light Snow
9:35 AM 23.0 °F 12.4 °F 17.6 °F 80% 30.15 in 4.0 mi North 10.4 mph - N/A Snow Light Snow
9:55 AM 24.8 °F 15.3 °F 17.6 °F 74% 30.15 in 5.0 mi North 9.2 mph - N/A Snow Light Snow
10:15 AM 24.8 °F 15.3 °F 14.0 °F 64% 30.15 in 10.0 mi North 9.2 mph - N/A   Overcast
10:35 AM 24.8 °F 15.3 °F 14.0 °F 64% 30.15 in 10.0 mi North 9.2 mph - N/A   Mostly Cloudy
10:55 AM 26.6 °F 17.5 °F 14.0 °F 59% 30.14 in 10.0 mi NNE 9.2 mph - N/A   Mostly Cloudy
11:15 AM 24.8 °F 16.1 °F 12.2 °F 59% 30.14 in 10.0 mi NNE 8.1 mph - N/A   Overcast
11:35 AM 26.6 °F 16.8 °F 10.4 °F 51% 30.13 in 10.0 mi North 10.4 mph - N/A   Overcast
11:55 AM 26.6 °F 17.5 °F 10.4 °F 51% 30.12 in 10.0 mi North 9.2 mph - N/A   Scattered Clouds
12:15 PM 26.6 °F 18.2 °F 10.4 °F 51% 30.11 in 10.0 mi NE 8.1 mph - N/A   Mostly Cloudy
12:35 PM 28.4 °F 24.6 °F 10.4 °F 47% 30.10 in 10.0 mi North 3.5 mph - N/A   Scattered Clouds
12:55 PM 28.4 °F 21.2 °F 8.6 °F 43% 30.09 in 10.0 mi North 6.9 mph - N/A   Scattered Clouds
1:20 PM 28.4 °F 24.6 °F 8.6 °F 43% 30.08 in 10.0 mi North 3.5 mph - N/A   Clear
1:35 PM 28.4 °F 20.4 °F 8.6 °F 43% 30.08 in 10.0 mi North 8.1 mph - N/A   Scattered Clouds
1:55 PM 30.2 °F 22.6 °F 6.8 °F 37% 30.06 in 10.0 mi North 8.1 mph - N/A   Scattered Clouds
2:15 PM 30.2 °F 22.6 °F 6.8 °F 37% 30.05 in 10.0 mi West 8.1 mph - N/A   Scattered Clouds
2:35 PM 30.2 °F - 6.8 °F 37% 30.03 in 10.0 mi Calm Calm - N/A   Clear
2:55 PM 32.0 °F 24.2 °F 6.8 °F 35% 30.02 in 10.0 mi NNW 9.2 mph - N/A   Clear
3:15 PM 30.2 °F 25.4 °F 5.0 °F 34% 30.01 in 10.0 mi West 4.6 mph - N/A   Clear
3:35 PM 32.0 °F 28.7 °F 5.0 °F 32% 30.01 in 10.0 mi North 3.5 mph - N/A   Clear
3:55 PM 32.0 °F 27.5 °F 5.0 °F 32% 29.99 in 10.0 mi North 4.6 mph - N/A   Clear
4:15 PM 32.0 °F 28.7 °F 3.2 °F 30% 29.99 in 10.0 mi West 3.5 mph - N/A   Clear
4:35 PM 32.0 °F 24.8 °F 3.2 °F 30% 29.98 in 10.0 mi North 8.1 mph - N/A   Clear
4:55 PM 32.0 °F 26.4 °F 3.2 °F 30% 29.98 in 10.0 mi WNW 5.8 mph - N/A   Clear
5:15 PM 32.0 °F 26.4 °F 1.4 °F 27% 29.98 in 10.0 mi NW 5.8 mph - N/A   Clear
5:35 PM 30.2 °F 24.3 °F 3.2 °F 32% 29.98 in 10.0 mi West 5.8 mph - N/A   Clear
5:55 PM 30.2 °F 24.3 °F 3.2 °F 32% 29.97 in 10.0 mi WNW 5.8 mph - N/A   Clear
6:15 PM 28.4 °F 20.4 °F 1.4 °F 31% 29.98 in 10.0 mi West 8.1 mph - N/A   Clear
6:35 PM 28.4 °F 21.2 °F 3.2 °F 34% 29.98 in 10.0 mi WNW 6.9 mph - N/A   Clear
6:55 PM 26.6 °F 22.6 °F 3.2 °F 37% 29.98 in 10.0 mi WNW 3.5 mph - N/A   Clear
7:15 PM 26.6 °F 22.6 °F 3.2 °F 37% 29.98 in 10.0 mi WNW 3.5 mph - N/A   Clear
7:35 PM 26.6 °F 22.6 °F 3.2 °F 37% 29.98 in 10.0 mi WNW 3.5 mph - N/A   Clear
7:55 PM 26.6 °F 21.2 °F 3.2 °F 37% 29.98 in 10.0 mi WNW 4.6 mph - N/A   Clear
8:15 PM 24.8 °F 19.1 °F 5.0 °F 43% 29.98 in 10.0 mi WNW 4.6 mph - N/A   Clear
8:35 PM 24.8 °F 19.1 °F 5.0 °F 43% 29.98 in 10.0 mi WNW 4.6 mph - N/A   Clear
8:55 PM 23.0 °F 17.0 °F 3.2 °F 43% 29.98 in 10.0 mi WNW 4.6 mph - N/A   Clear
9:15 PM 23.0 °F 18.4 °F 3.2 °F 43% 29.98 in 10.0 mi WNW 3.5 mph - N/A   Clear
9:35 PM 23.0 °F 17.0 °F 3.2 °F 43% 29.98 in 10.0 mi West 4.6 mph - N/A   Clear
9:55 PM 23.0 °F 18.4 °F 3.2 °F 43% 29.98 in 10.0 mi West 3.5 mph - N/A   Clear
10:15 PM 21.2 °F 16.4 °F 5.0 °F 50% 29.98 in 10.0 mi WSW 3.5 mph - N/A   Clear
10:35 PM 21.2 °F 16.4 °F 5.0 °F 50% 29.98 in 10.0 mi WSW 3.5 mph - N/A   Clear
10:55 PM 21.2 °F 14.9 °F 5.0 °F 50% 29.98 in 10.0 mi West 4.6 mph - N/A   Clear
11:15 PM 21.2 °F 13.6 °F 5.0 °F 50% 29.98 in 10.0 mi West 5.8 mph - N/A   Clear
11:35 PM 21.2 °F 16.4 °F 5.0 °F 50% 29.98 in 10.0 mi West 3.5 mph - N/A   Clear
11:55 PM 21.2 °F - 5.0 °F 50% 29.98 in 10.0 mi Calm Calm - N/A   Clear